Voltar ao catálogo

SVYATOBOR-1

AtivoCiênciaSSO
NORAD 57187·PAYLOAD·🇷🇺 Russia
Este nome de satélite ainda não foi confirmado por fontes oficiais.

Lançado Jun 27, 2023 de Vostochny Cosmodrome

Loading…

Próximas Passagens (próximas 24 horas)

TLE

AtualizadoSource: Space-Track

Época: Sep 14, 2026, 22:46 UTC

1 57187U 23091X   26257.94920926  .00008575  00000-0  31693-3 0  9996
2 57187  97.4996 322.3044 0010291 130.6541 229.5594 15.27923359178014

Acompanhe SVYATOBOR-1 em tempo real com AllMySat

Download on the App Store